Find Starlink 11544

NORAD ID: 62984 Int'l Des: 2025-031 Owner: SPXS Country: US Constellation: starlink operational
又名: STARLINK-11544 [DTC] celestrak
LEOCIRCULAR

当前视图

正在加载3D地球...

About Starlink 11544

Starlink 11544 (NORAD 62984) is a starlink constellation satellite (v2 mini d2c) launched Feb 11, 2025 by SPXS of US. It operates in LEO, CIRCULAR orbit with a mass of 960.00 kg.

即将过境

Passes for default location (London). Set your location on the main map for personalized predictions.

高度历史

Loading altitude history...

两行轨道根数

1 62984U 25031D 26263.37544250 .00138368 00000-0 10629-2 0 9998
2 62984 43.0004 267.7594 0001800 271.4393 88.6268 15.70864159 93332
Epoch: Sep 20, 2026 • Age: 17 hours

当前状态

高度 359.9 km
远地点 / 近地点 N/A
速度 7.70 km/s
星下点 42.29°N, 52.58°W
发射日期 Feb 11, 2025
运行时间 1.6 years
类型 internet

技术详情

分类 Payload
质量 960.00 kg
干质量 910.00 kg
长度 0.30 m
跨度 29.00 m
形状 ? Box + pan
制造商 SPXS
平台类型 Starlink V2MD
阶段状态 In Orbit
所有者/国家 SPXS/US

Most Searched